User: anonymous   Login
Location: Mentone
(34.5413°N, 85.5351°W)
Time: 14:40:35
(UTC-06:00)
Language:

Centaur AC-72 - Orbit

View from above orbital plane
View from above orbital plane
View from above satellite
View from above satellite

Ground track
Ground track

The orbit data is extracted from the following two-line orbital elements,

1 21907U 92013B   17051.02950892 -.00000058  00000-0  00000+0 0  9996
2 21907  19.4464 307.1817 6947072  82.8270 266.6088  2.25609000205634
Epoch (UTC): 20 February 2017 00:42:29
Eccentricity: 0.6947072
inclination: 19.4464°
perigee height: 1119 km
apogee height: 35237 km
right ascension of ascending node: 307.1817°
argument of perigee: 82.8270°
revolutions per day: 2.25609000
mean anomaly at epoch: 266.6088°
orbit number at epoch: 20563

The dashed part of the orbit path shows where the satellite is in the earth's shadow,  

DLR